• In Netherlands
  • List of Countries
  • For 7 days
  • Water Temperature
  • Satellite Maps
  • Weather Map
  • Weather Widgets
  • user-avatar
    Login

    Hourly Weather Kapan

    Today, 27 May, Sunday

    Time Temperature Precipitation Wind Pressure Humidity
    00:00 +19°C° 0 mm 2 mps 685 mmHg 57%
    01:00 +18°C° 0 mm 2 mps 685 mmHg 57%
    02:00 +18°C° 0 mm 2 mps 685 mmHg 57%
    03:00 +18°C° 0 mm 2 mps 685 mmHg 58%
    04:00 +19°C° 0 mm 1 mps 686 mmHg 57%
    05:00 +20°C° 0 mm 1 mps 686 mmHg 56%
    06:00 +21°C° 0 mm 1 mps 687 mmHg 55%
    07:00 +22°C° 0 mm 1 mps 688 mmHg 52%
    08:00 +24°C° 0 mm 2 mps 688 mmHg 49%
    09:00 +25°C° 0 mm 2 mps 689 mmHg 47%
    10:00 +25°C° 0 mm 3 mps 689 mmHg 46%
    11:00 +26°C° 0 mm 3 mps 689 mmHg 45%
    12:00 +26°C° 0 mm 4 mps 689 mmHg 45%
    13:00 +26°C° 0.1 mm 4 mps 689 mmHg 47%
    14:00 +26°C° 0.1 mm 4 mps 689 mmHg 49%
    15:00 +25°C° 0.1 mm 4 mps 688 mmHg 51%
    16:00 +23°C° 0 mm 4 mps 688 mmHg 57%
    17:00 +21°C° 0 mm 4 mps 688 mmHg 62%
    18:00 +20°C° 0 mm 4 mps 688 mmHg 67%
    19:00 +19°C° 0 mm 3 mps 688 mmHg 72%
    20:00 +18°C° 0 mm 2 mps 688 mmHg 76%
    21:00 +16°C° 0 mm 2 mps 689 mmHg 81%
    22:00 +16°C° 0 mm 2 mps 689 mmHg 82%
    23:00 +15°C° 0 mm 2 mps 689 mmHg 83%

    Tomorrow, 28 May, Monday

    Time Temperature Precipitation Wind Pressure Humidity
    00:00 +15°C° 0 mm 1 mps 689 mmHg 85%
    01:00 +15°C° 0 mm 1 mps 688 mmHg 83%
    02:00 +14°C° 0 mm 1 mps 688 mmHg 82%
    03:00 +14°C° 0 mm 1 mps 688 mmHg 81%
    04:00 +15°C° 0 mm 1 mps 688 mmHg 76%
    05:00 +18°C° 0 mm 1 mps 688 mmHg 71%
    06:00 +19°C° 0 mm 1 mps 688 mmHg 65%
    07:00 +21°C° 0 mm 1 mps 688 mmHg 59%
    08:00 +22°C° 0 mm 1 mps 688 mmHg 52%
    09:00 +24°C° 0 mm 2 mps 688 mmHg 45%
    10:00 +26°C° 0 mm 2 mps 688 mmHg 42%
    11:00 +27°C° 0 mm 2 mps 688 mmHg 39%
    12:00 +28°C° 0 mm 2 mps 688 mmHg 36%
    13:00 +29°C° 0 mm 2 mps 687 mmHg 36%
    14:00 +29°C° 0 mm 3 mps 687 mmHg 35%
    15:00 +29°C° 0 mm 3 mps 686 mmHg 35%
    16:00 +28°C° 0 mm 3 mps 686 mmHg 39%
    17:00 +27°C° 0 mm 2 mps 685 mmHg 42%
    18:00 +26°C° 0 mm 2 mps 685 mmHg 46%
    19:00 +24°C° 0 mm 2 mps 685 mmHg 53%
    20:00 +21°C° 0 mm 2 mps 685 mmHg 59%
    21:00 +20°C° 0 mm 1 mps 685 mmHg 66%
    22:00 +20°C° 0 mm 1 mps 685 mmHg 66%
    23:00 +20°C° 0 mm 1 mps 685 mmHg 66%

    Day after tomorrow, 29 May, Tuesday

    Time Temperature Precipitation Wind Pressure Humidity
    00:00 +18°C° 0 mm 2 mps 685 mmHg 66%
    01:00 +19°C° 0 mm 1 mps 684 mmHg 66%
    02:00 +19°C° 0 mm 1 mps 684 mmHg 67%
    03:00 +18°C° 0 mm 1 mps 684 mmHg 67%
    04:00 +18°C° 0 mm 2 mps 684 mmHg 65%
    05:00 +19°C° 0 mm 2 mps 684 mmHg 63%
    06:00 +19°C° 0 mm 2 mps 685 mmHg 62%
    07:00 +21°C° 0 mm 2 mps 685 mmHg 56%
    08:00 +22°C° 0 mm 3 mps 685 mmHg 51%
    09:00 +24°C° 0 mm 3 mps 685 mmHg 45%
    10:00 +25°C° 0 mm 4 mps 685 mmHg 44%
    11:00 +26°C° 0 mm 4 mps 685 mmHg 43%
    12:00 +27°C° 0 mm 4 mps 685 mmHg 41%
    13:00 +26°C° 0.2 mm 4 mps 685 mmHg 45%
    14:00 +25°C° 0.2 mm 4 mps 684 mmHg 49%
    15:00 +23°C° 0.2 mm 4 mps 684 mmHg 53%
    16:00 +22°C° 0.2 mm 4 mps 684 mmHg 57%
    17:00 +21°C° 0.2 mm 4 mps 684 mmHg 61%
    18:00 +20°C° 0.2 mm 4 mps 684 mmHg 66%
    19:00 +18°C° 0 mm 4 mps 684 mmHg 70%
    20:00 +17°C° 0 mm 3 mps 684 mmHg 73%
    21:00 +16°C° 0 mm 2 mps 685 mmHg 77%
    22:00 +15°C° 0.1 mm 2 mps 685 mmHg 78%
    23:00 +15°C° 0.1 mm 2 mps 685 mmHg 79%

    30 May, Wednesday

    Time Temperature Precipitation Wind Pressure Humidity
    00:00 +14°C° 0.1 mm 2 mps 684 mmHg 80%
    01:00 +14°C° 0 mm 2 mps 684 mmHg 79%
    02:00 +14°C° 0 mm 2 mps 684 mmHg 79%
    03:00 +13°C° 0 mm 2 mps 684 mmHg 78%
    04:00 +14°C° 0 mm 2 mps 684 mmHg 76%
    05:00 +14°C° 0 mm 2 mps 685 mmHg 73%
    06:00 +15°C° 0 mm 2 mps 685 mmHg 71%
    07:00 +16°C° 0 mm 2 mps 685 mmHg 66%
    08:00 +18°C° 0 mm 3 mps 685 mmHg 62%
    09:00 +19°C° 0 mm 3 mps 686 mmHg 57%
    10:00 +21°C° 0 mm 3 mps 686 mmHg 54%
    11:00 +22°C° 0 mm 3 mps 686 mmHg 51%
    12:00 +24°C° 0 mm 3 mps 685 mmHg 47%
    13:00 +25°C° 0 mm 3 mps 685 mmHg 47%
    14:00 +25°C° 0 mm 4 mps 685 mmHg 46%
    15:00 +26°C° 0 mm 4 mps 685 mmHg 45%
    16:00 +25°C° 0.2 mm 3 mps 684 mmHg 49%
    17:00 +22°C° 0.2 mm 3 mps 684 mmHg 53%
    18:00 +21°C° 0.2 mm 3 mps 684 mmHg 57%
    19:00 +20°C° 0.1 mm 2 mps 683 mmHg 62%
    20:00 +18°C° 0.1 mm 2 mps 683 mmHg 66%
    21:00 +18°C° 0.1 mm 1 mps 683 mmHg 71%
    22:00 +17°C° 0.1 mm 2 mps 683 mmHg 70%
    23:00 +17°C° 0.1 mm 2 mps 682 mmHg 69%

    31 May, Thursday

    Time Temperature Precipitation Wind Pressure Humidity
    00:00 +17°C° 0.1 mm 2 mps 682 mmHg 68%
    01:00 +17°C° 0.1 mm 2 mps 682 mmHg 67%
    02:00 +17°C° 0.1 mm 2 mps 681 mmHg 66%
    03:00 +18°C° 0.1 mm 1 mps 681 mmHg 65%
    04:00 +19°C° 0 mm 1 mps 681 mmHg 62%
    05:00 +20°C° 0 mm 1 mps 681 mmHg 60%
    06:00 +21°C° 0 mm 1 mps 681 mmHg 57%
    07:00 +23°C° 0 mm 1 mps 681 mmHg 51%
    08:00 +25°C° 0 mm 2 mps 682 mmHg 46%
    09:00 +27°C° 0 mm 2 mps 682 mmHg 40%
    10:00 +28°C° 0 mm 3 mps 681 mmHg 37%
    11:00 +30°C° 0 mm 3 mps 681 mmHg 33%
    12:00 +32°C° 0 mm 4 mps 681 mmHg 30%
    13:00 +32°C° 0 mm 4 mps 681 mmHg 29%
    14:00 +33°C° 0 mm 4 mps 680 mmHg 29%
    15:00 +33°C° 0 mm 4 mps 680 mmHg 28%
    16:00 +32°C° 0.2 mm 4 mps 680 mmHg 32%
    17:00 +29°C° 0.2 mm 3 mps 679 mmHg 36%
    18:00 +28°C° 0.2 mm 3 mps 679 mmHg 40%
    19:00 +26°C° 0.2 mm 2 mps 679 mmHg 46%
    20:00 +24°C° 0.2 mm 2 mps 679 mmHg 51%
    21:00 +21°C° 0.2 mm 2 mps 680 mmHg 56%
    22:00 +20°C° 0.1 mm 2 mps 680 mmHg 55%
    23:00 +20°C° 0.1 mm 2 mps 680 mmHg 53%

    1 June, Friday

    Time Temperature Precipitation Wind Pressure Humidity
    00:00 +20°C° 0.1 mm 3 mps 680 mmHg 52%
    01:00 +20°C° 0 mm 3 mps 680 mmHg 51%
    02:00 +19°C° 0 mm 3 mps 680 mmHg 50%
    03:00 +19°C° 0 mm 3 mps 680 mmHg 50%
    04:00 +20°C° 0 mm 3 mps 680 mmHg 49%
    05:00 +20°C° 0 mm 3 mps 680 mmHg 48%
    06:00 +21°C° 0 mm 3 mps 680 mmHg 47%
    07:00 +24°C° 0 mm 3 mps 681 mmHg 41%
    08:00 +26°C° 0 mm 3 mps 681 mmHg 35%
    09:00 +28°C° 0 mm 3 mps 681 mmHg 29%
    10:00 +30°C° 0 mm 4 mps 681 mmHg 27%
    11:00 +32°C° 0 mm 4 mps 681 mmHg 24%
    12:00 +33°C° 0 mm 4 mps 681 mmHg 22%
    13:00 +33°C° 0 mm 4 mps 680 mmHg 22%
    14:00 +33°C° 0 mm 4 mps 680 mmHg 22%
    15:00 +34°C° 0 mm 4 mps 680 mmHg 22%
    16:00 +31°C° 0 mm 3 mps 679 mmHg 26%
    17:00 +30°C° 0 mm 3 mps 679 mmHg 30%
    18:00 +29°C° 0 mm 3 mps 679 mmHg 34%
    19:00 +27°C° 0 mm 2 mps 679 mmHg 41%
    20:00 +24°C° 0 mm 1 mps 679 mmHg 48%
    21:00 +22°C° 0 mm 1 mps 679 mmHg 56%
    22:00 +21°C° 0 mm 1 mps 679 mmHg 56%
    23:00 +21°C° 0 mm 1 mps 679 mmHg 57%
    Show more